Location: Cincinnati Observatory Center
(39.1389°N, 84.4225°W)
Time: 10:57:24
(UTC-04:00)

Amateur Radio Satellites - All Passes

Search period start: 30 July 2016 10:27
Search period end: 31 July 2016 10:27
Location: Cincinnati Observatory Center, 39.1389°N, 84.4225°W

Satellite Date Start Highest point End Downlink Frequencies (MHz)
Time Altitude Azimuth
UNISAT 6 30 Jul 10:28:42 10:32:48 32° 70° (ENE) 10:36:58 437.425
COMPASS 1 30 Jul 10:29:55 10:33:56 53° 286° (WNW) 10:37:57 437.405
Cosmos 2491 30 Jul 10:37:58 10:46:01 43° 273° (W) 10:54:05 435.465 / 435.565
DELFI C3 30 Jul 10:48:39 10:52:04 28° 96° (E) 10:55:28 145.870
AUBIESAT-1 30 Jul 10:49:21 10:51:36 13° 95° (E) 10:53:51 437.475
AAUSAT CUBESAT 2 30 Jul 10:55:00 10:58:43 34° 288° (WNW) 11:02:26 437.432
CINEMA 3 30 Jul 10:57:13 11:00:09 16° 296° (WNW) 11:03:04 145.822/145.860
FUNcube-1 30 Jul 10:59:40 11:04:09 88° 107° (ESE) 11:08:29 145.935
ZACube-1 30 Jul 11:02:35 11:07:05 81° 283° (WNW) 11:11:25 437.345
ANTELSAT 30 Jul 11:06:23 11:11:02 80° 76° (ENE) 11:15:46 437.575/2403.000
UWE-3 30 Jul 11:10:08 11:14:28 43° 288° (WNW) 11:18:40 435.000/436.395/437.385
HO-68 30 Jul 11:12:41 11:18:36 29° 299° (WNW) 11:24:29 435.675
QB50P1 30 Jul 11:20:16 11:22:58 17° 66° (ENE) 11:25:41 145.935-145.965
POPSAT HIP 1 30 Jul 11:26:41 11:29:43 19° 67° (ENE) 11:32:46 437.405
Cosmos 2504 30 Jul 11:32:28 11:41:18 74° 94° (E) 11:50:04 435.465 / 435.565
Oscar 11 30 Jul 11:37:46 11:41:35 31° 289° (WNW) 11:45:22 145.826/435.025
CUBEBUG 2 30 Jul 11:40:56 11:43:44 16° 296° (WNW) 11:46:29 437.445
HUMSAT D 30 Jul 11:46:33 11:50:42 65° 101° (E) 11:54:46 437.325/437.525
TIGRISAT 30 Jul 11:47:25 11:51:46 39° 262° (W) 11:56:11 435.000
QB50P2 30 Jul 11:47:33 11:51:25 35° 71° (ENE) 11:55:19 145.880/145.840
JAS-2 30 Jul 11:48:09 11:51:12 15° 63° (ENE) 11:54:09 435.910
POLYITAN 1 30 Jul 11:50:09 11:54:03 35° 71° (ENE) 11:57:59 437.675
M-CUBED/EXP-1 PRIME 30 Jul 11:58:39 12:03:24 88° 287° (WNW) 12:08:03 437.505
YUBILEINY 30 Jul 12:04:39 12:11:59 29° 291° (WNW) 12:19:24 435.215
UNISAT 6 30 Jul 12:05:44 12:09:30 24° 265° (W) 12:13:20 437.425
AUBIESAT-1 30 Jul 12:21:48 12:26:24 61° 290° (WNW) 12:30:53 437.475
DELFI C3 30 Jul 12:23:51 12:26:44 20° 292° (WNW) 12:29:36 145.870
NANOSAT C BR1 30 Jul 12:29:31 12:33:45 85° 256° (WSW) 12:38:02 145.865
RS-15 30 Jul 12:30:38 12:38:50 20° 6° (N) 12:47:09 29.354- 29.394
AISAT 30 Jul 12:31:19 12:34:32 19° 94° (E) 12:37:44 437.250
DUCHIFAT 1 30 Jul 12:32:02 12:36:16 85° 257° (WSW) 12:40:33 145.980
BUGSAT 1 30 Jul 12:32:11 12:36:00 39° 72° (ENE) 12:39:53 437.445
50 SAT 30 Jul 12:47:47 12:50:49 25° 97° (E) 12:53:50 437.505
SPROUT 30 Jul 12:52:26 12:54:45 14° 92° (E) 12:57:03 437.525
QB50P1 30 Jul 12:54:23 12:58:24 40° 262° (W) 13:02:27 145.935-145.965
POPSAT HIP 1 30 Jul 13:01:21 13:05:14 34° 262° (W) 13:09:09 437.405
Oscar 19 30 Jul 13:11:55 13:15:44 22° 65° (ENE) 13:19:33 437.125/150
CUBEBUG 1 30 Jul 13:13:11 13:17:34 63° 102° (ESE) 13:21:57 437.445
AIST 1 30 Jul 13:16:39 13:20:11 26° 89° (E) 13:23:44
AO-85 30 Jul 13:18:47 13:23:44 38° 114° (ESE) 13:28:32 145.980
ESTCUBE 1 30 Jul 13:20:05 13:24:34 72° 285° (WNW) 13:29:02 437.505/2401.250
VELOX 1 30 Jul 13:21:26 13:25:52 66° 102° (ESE) 13:30:18 145.980
Gurwin Techsat 1B 30 Jul 13:23:21 13:25:36 13° 60° (ENE) 13:27:53 435.225
QB50P2 30 Jul 13:24:19 13:27:19 18° 267° (W) 13:30:19 145.880/145.840
HUMSAT D 30 Jul 13:25:03 13:25:44 10° 297° (WNW) 13:26:24 437.325/437.525
POLYITAN 1 30 Jul 13:26:59 13:29:57 18° 267° (W) 13:32:56 437.675
Cosmos 2504 30 Jul 13:28:36 13:35:27 24° 293° (WNW) 13:42:17 435.465 / 435.565
JAS-2 30 Jul 13:29:52 13:35:50 71° 257° (WSW) 13:41:14 435.910
M-CUBED/EXP-1 PRIME 30 Jul 13:35:57 13:37:09 11° 304° (NW) 13:38:20 437.505
DX 1 30 Jul 13:53:37 13:58:00 76° 284° (WNW) 14:02:21 434.975-435.025
UKube-1 30 Jul 14:00:23 14:04:44 81° 286° (WNW) 14:09:03 .
AISAT 30 Jul 14:06:59 14:11:05 37° 289° (WNW) 14:15:12 437.250
BUGSAT 1 30 Jul 14:09:07 14:11:33 15° 268° (W) 14:14:00 437.445
GONETS M04 30 Jul 14:19:53 14:24:15 15° 76° (ENE) 14:28:39
50 SAT 30 Jul 14:21:48 14:24:15 18° 292° (WNW) 14:26:42 437.505
SPROUT 30 Jul 14:26:47 14:30:56 46° 287° (WNW) 14:35:02 437.525
Cosmos 2499 30 Jul 14:28:20 14:30:59 12° 75° (ENE) 14:33:36 435.465 / 435.565
RS-15 30 Jul 14:45:13 14:56:28 38° 39° (NE) 15:07:36 29.354- 29.394
AO-7 30 Jul 14:48:08 14:54:27 25° 55° (NE) 15:00:45 29.400- 29.500
Oscar 19 30 Jul 14:49:52 14:54:43 44° 261° (W) 14:59:37 437.125/150
CUBEBUG 1 30 Jul 14:51:35 14:53:18 12° 297° (WNW) 14:55:00 437.445
ITAMSAT 1 30 Jul 14:53:29 14:57:56 29° 67° (ENE) 15:02:23 435.822/435.867
AIST 1 30 Jul 14:54:22 14:57:43 22° 286° (WNW) 15:01:06
Gurwin Techsat 1B 30 Jul 14:59:29 15:04:49 83° 258° (WSW) 15:10:09 435.225
AO-85 30 Jul 14:59:31 15:04:16 31° 310° (NW) 15:08:50 145.980
VELOX 1 30 Jul 15:00:06 15:01:45 12° 297° (WNW) 15:03:25 145.980
TISAT 1 30 Jul 15:08:39 15:12:54 70° 285° (WNW) 15:17:07 437.305
SWISSCUBE 30 Jul 15:17:37 15:21:40 27° 96° (E) 15:25:40 437.505
PHONESAT 2.4 30 Jul 15:18:16 15:19:49 13° 147° (SSE) 15:21:23 2401.200-2431.200
CUSAT 1 30 Jul 15:35:32 15:38:47 56° 262° (W) 15:42:56 437.405
BEESAT 30 Jul 15:38:14 15:42:43 40° 99° (E) 15:47:10 436.000
ITUPSAT 1 30 Jul 16:03:39 16:08:26 74° 101° (ESE) 16:13:10 437.325
GONETS M04 30 Jul 16:10:58 16:19:39 85° 94° (E) 16:28:25
Cosmos 2499 30 Jul 16:13:44 16:22:31 69° 93° (E) 16:31:03 435.465 / 435.565
SO-50 30 Jul 16:16:49 16:20:45 26° 48° (NE) 16:24:34 436.795
KKS-1 30 Jul 16:23:23 16:25:23 13° 91° (E) 16:27:23 437.445
ITAMSAT 1 30 Jul 16:32:36 16:37:16 33° 263° (W) 16:41:58 435.822/435.867
DANDE 30 Jul 16:34:06 16:36:33 28° 263° (W) 16:39:21 436.750
AO-7 30 Jul 16:37:59 16:46:21 78° 254° (WSW) 16:54:47 29.400- 29.500
HORYU 2 30 Jul 16:43:42 16:46:42 18° 65° (ENE) 16:49:42 437.375
STARS 30 Jul 16:51:52 16:53:47 13° 91° (E) 16:55:42 437.465
PHONESAT 2.4 30 Jul 16:52:53 16:55:54 59° 161° (SSE) 16:58:57 2401.200-2431.200
SWISSCUBE 30 Jul 16:55:17 16:59:23 29° 292° (WNW) 17:03:27 437.505
RS-15 30 Jul 16:57:48 17:10:09 76° 244° (WSW) 17:22:13 29.354- 29.394
BEESAT 30 Jul 17:16:42 17:20:12 21° 294° (WNW) 17:23:42 436.000
MOZHAYETS 4 30 Jul 17:23:00 17:27:34 67° 102° (ESE) 17:32:05
ITUPSAT 1 30 Jul 17:43:49 17:45:37 12° 299° (WNW) 17:47:26 437.325
SO-50 30 Jul 17:57:06 18:01:16 35° 246° (WSW) 18:05:20 436.795
KKS-1 30 Jul 17:57:52 18:02:17 56° 287° (WNW) 18:06:40 437.445
LilacSat-2 30 Jul 18:00:01 18:01:43 13° 66° (ENE) 18:03:25 437.200
BEESAT 3 30 Jul 18:05:54 18:09:34 39° 116° (ESE) 18:13:16 437.485
NOAA 18 30 Jul 18:07:18 18:11:45 26° 65° (ENE) 18:16:14 137.9125
Cosmos 2499 30 Jul 18:09:12 18:16:15 26° 291° (WNW) 18:23:10 435.465 / 435.565
GONETS M04 30 Jul 18:11:45 18:17:35 19° 296° (WNW) 18:23:29
Cubesat XI-IV 30 Jul 18:16:21 18:20:55 29° 67° (ENE) 18:25:29 437.490
HORYU 2 30 Jul 18:18:39 18:22:54 43° 261° (W) 18:27:12 437.375
BEESAT 2 30 Jul 18:20:01 18:23:28 29° 114° (ESE) 18:26:55 435.950
STARS 30 Jul 18:26:06 18:30:28 55° 287° (WNW) 18:34:47 437.465
PHONESAT 2.4 30 Jul 18:29:21 18:32:25 65° 357° (N) 18:35:30 2401.200-2431.200
AO-7 30 Jul 18:36:37 18:40:17 13° 271° (W) 18:44:00 29.400- 29.500
CUTE-I 30 Jul 18:38:07 18:43:12 46° 71° (ENE) 18:48:19 437.470
BRITE-PL 30 Jul 18:42:56 18:47:04 79° 75° (ENE) 18:51:16 437.365/2234.400
NOAA 15 30 Jul 18:45:29 18:50:42 72° 74° (ENE) 18:55:56 137.62
CUBESAT XI-V 30 Jul 18:52:38 18:57:15 73° 102° (ESE) 19:01:52 437.345
DOVE 4 30 Jul 18:59:33 19:02:58 23° 67° (ENE) 19:06:33 437.250
MOZHAYETS 4 30 Jul 19:02:23 19:04:07 12° 297° (WNW) 19:05:51
RS-15 30 Jul 19:13:44 19:20:25 17° 264° (W) 19:27:03 29.354- 29.394
PCSat 30 Jul 19:20:32 19:25:53 67° 115° (ESE) 19:31:17 145.827
GOMX 1 30 Jul 19:25:11 19:29:23 82° 259° (WSW) 19:33:48 467.674
LilacSat-2 30 Jul 19:31:52 19:35:35 45° 261° (W) 19:39:21 437.200
ISS 30 Jul 19:35:09 19:36:34 12° 129° (SE) 19:37:59 145.825
BEESAT 3 30 Jul 19:44:37 19:47:24 18° 313° (NW) 19:50:12 437.485
NOAA 18 30 Jul 19:46:54 19:52:08 43° 261° (W) 19:57:24 137.9125
HO-68 30 Jul 19:51:48 19:58:14 37° 64° (ENE) 20:04:42 435.675
Cubesat XI-IV 30 Jul 19:55:58 20:00:50 35° 263° (W) 20:05:44 437.490
BEESAT 2 30 Jul 19:58:03 20:01:16 23° 310° (NW) 20:04:32 435.950
O/OREOS (USA 219) 30 Jul 19:59:23 20:02:47 22° 102° (ESE) 20:06:12 437.305
PHONESAT 2.4 30 Jul 20:05:54 20:09:00 82° 194° (SSW) 20:12:05 2401.200-2431.200
AAUSAT CUBESAT 2 30 Jul 20:11:31 20:12:32 11° 64° (ENE) 20:13:33 437.432
STRAND 1 30 Jul 20:18:17 20:22:49 32° 97° (E) 20:27:20 437.568
YUBILEINY 30 Jul 20:18:17 20:25:36 28° 69° (ENE) 20:32:50 435.215
CINEMA 3 30 Jul 20:18:49 20:23:11 46° 72° (ENE) 20:27:47 145.822/145.860
CUTE-I 30 Jul 20:19:24 20:23:26 22° 266° (W) 20:27:30 437.470
NOAA 15 30 Jul 20:28:43 20:30:58 13° 270° (W) 20:33:14 137.62
CANX-2 30 Jul 20:30:11 20:34:21 55° 74° (ENE) 20:38:32 2200.000
UWE-3 30 Jul 20:31:31 20:33:44 13° 63° (ENE) 20:35:57 435.000/436.395/437.385
CUBESAT XI-V 30 Jul 20:32:32 20:34:00 11° 298° (WNW) 20:35:28 437.345
DOVE 4 30 Jul 20:36:39 20:40:29 31° 265° (W) 20:44:32 437.250
CUTE 1.7 + AOD 2 30 Jul 20:42:45 20:46:59 67° 75° (ENE) 20:51:13 437.475
AIST 2 30 Jul 20:52:56 20:56:58 62° 118° (ESE) 21:01:03 435.215
Oscar 11 30 Jul 20:56:40 20:59:11 15° 65° (ENE) 21:01:40 145.826/435.025
CUBEBUG 2 30 Jul 20:59:34 21:03:50 38° 71° (ENE) 21:08:12 437.445
PCSat 30 Jul 21:05:57 21:09:48 19° 313° (NW) 21:13:39 145.827
ISS 30 Jul 21:09:23 21:12:36 63° 324° (NW) 21:15:51 145.825
SEEDS 30 Jul 21:14:38 21:18:51 74° 258° (WSW) 21:23:04 437.485
COMPASS 1 30 Jul 21:18:57 21:23:08 85° 77° (ENE) 21:27:19 437.405
Cosmos 2504 30 Jul 21:28:30 21:34:40 24° 67° (ENE) 21:40:28 435.465 / 435.565
DELFI C3 30 Jul 21:34:30 21:36:49 15° 67° (ENE) 21:39:08 145.870
AUBIESAT-1 30 Jul 21:34:45 21:36:35 13° 57° (ENE) 21:38:28 437.475
O/OREOS (USA 219) 30 Jul 21:37:57 21:41:58 32° 298° (WNW) 21:46:01 437.305
PRISM 30 Jul 21:38:41 21:42:05 25° 96° (E) 21:45:28 437.425
HO-68 30 Jul 21:39:07 21:45:48 42° 261° (W) 21:52:34 435.675
Cosmos 2491 30 Jul 21:40:45 21:48:56 48° 89° (E) 21:57:08 435.465 / 435.565
PHONESAT 2.4 30 Jul 21:42:51 21:45:14 20° 209° (SSW) 21:47:36 2401.200-2431.200
AAUSAT CUBESAT 2 30 Jul 21:43:22 21:47:29 62° 260° (W) 21:51:35 437.432
AO-85 30 Jul 21:52:28 21:55:54 21° 46° (NE) 21:59:07 145.980
FUNcube-1 30 Jul 21:53:22 21:57:49 59° 74° (ENE) 22:02:20 145.935
ZACube-1 30 Jul 21:56:30 22:01:01 68° 75° (ENE) 22:05:36 437.345
STRAND 1 30 Jul 21:57:33 22:01:53 29° 293° (WNW) 22:06:12 437.568
CINEMA 3 30 Jul 21:57:41 22:00:36 17° 269° (W) 22:03:36 145.822/145.860
UWE-3 30 Jul 22:05:02 22:09:36 63° 260° (W) 22:14:15 435.000/436.395/437.385
CANX-2 30 Jul 22:08:59 22:10:31 12° 269° (W) 22:12:03 2200.000
YUBILEINY 30 Jul 22:14:18 22:22:58 62° 268° (W) 22:31:33 435.215
Oscar 11 30 Jul 22:30:42 22:34:54 47° 261° (W) 22:39:06 145.826/435.025
AIST 2 30 Jul 22:33:32 22:35:51 14° 316° (NW) 22:38:11 435.215
HUMSAT D 30 Jul 22:36:22 22:40:22 39° 72° (ENE) 22:44:22 437.325/437.525
CUBEBUG 2 30 Jul 22:37:06 22:40:33 21° 267° (W) 22:44:05 437.445
M-CUBED/EXP-1 PRIME 30 Jul 22:44:02 22:47:51 86° 252° (WSW) 22:52:03 437.505
ISS 30 Jul 22:47:43 22:49:34 14° 342° (NNW) 22:51:25 145.825
ANTELSAT 30 Jul 23:00:28 23:03:38 18° 93° (E) 23:06:44 437.575/2403.000
AUBIESAT-1 30 Jul 23:06:39 23:10:27 56° 255° (WSW) 23:14:36 437.475
DELFI C3 30 Jul 23:07:37 23:11:20 38° 262° (W) 23:15:04 145.870
PRISM 30 Jul 23:13:57 23:17:17 24° 291° (WNW) 23:20:38 437.425
Cosmos 2504 30 Jul 23:20:51 23:28:45 64° 268° (W) 23:36:03 435.465 / 435.565
50 SAT 30 Jul 23:26:20 23:27:19 11° 65° (ENE) 23:28:18 437.505
AISAT 30 Jul 23:28:23 23:30:59 16° 65° (ENE) 23:33:36 437.250
FUNcube-1 30 Jul 23:32:26 23:34:24 13° 270° (W) 23:36:23 145.935
AO-85 30 Jul 23:32:32 23:36:28 36° 246° (WSW) 23:40:09 145.980
ZACube-1 30 Jul 23:36:38 23:37:44 11° 271° (W) 23:38:51 437.345
Cosmos 2491 30 Jul 23:38:08 23:45:55 36° 288° (WNW) 23:53:45 435.465 / 435.565
TIGRISAT 30 Jul 23:39:57 23:44:24 46° 99° (E) 23:48:42 435.000
SPROUT 30 Jul 23:47:21 23:47:36 10° 62° (ENE) 23:47:51 437.525
UNISAT 6 30 Jul 23:57:37 00:02:14 79° 102° (ESE) 00:06:43 437.425
CUBEBUG 1 31 Jul 00:07:57 00:12:02 44° 72° (ENE) 00:16:10 437.445
HUMSAT D 31 Jul 00:13:18 00:16:07 17° 267° (W) 00:18:56 437.325/437.525
NANOSAT C BR1 31 Jul 00:16:11 00:18:57 17° 93° (E) 00:21:41 145.865
VELOX 1 31 Jul 00:17:29 00:21:42 49° 73° (ENE) 00:25:57 145.980
ESTCUBE 1 31 Jul 00:18:08 00:22:37 90° 83° (E) 00:27:08 437.505/2401.250
DUCHIFAT 1 31 Jul 00:18:27 00:21:10 16° 93° (E) 00:23:52 145.980
ANTELSAT 31 Jul 00:36:12 00:40:30 39° 289° (WNW) 00:44:40 437.575/2403.000
QB50P1 31 Jul 00:40:09 00:44:02 33° 97° (E) 00:47:53 145.935-145.965
JAS-2 31 Jul 00:41:17 00:43:45 13° 92° (E) 00:46:18 435.910
POPSAT HIP 1 31 Jul 00:46:54 00:50:57 39° 98° (E) 00:54:56 437.405
DX 1 31 Jul 00:47:40 00:51:59 80° 77° (ENE) 00:56:20 434.975-435.025
UKube-1 31 Jul 00:53:27 00:57:44 73° 75° (ENE) 01:02:03 .
50 SAT 31 Jul 00:56:59 01:00:31 46° 261° (W) 01:04:03 437.505
AIST 1 31 Jul 01:01:09 01:05:32 76° 83° (E) 01:09:54
AISAT 31 Jul 01:02:50 01:07:03 47° 261° (W) 01:11:19 437.250
QB50P2 31 Jul 01:08:45 01:13:03 78° 103° (ESE) 01:17:18 145.880/145.840
POLYITAN 1 31 Jul 01:11:23 01:15:42 79° 104° (ESE) 01:19:57 437.675
TIGRISAT 31 Jul 01:17:46 01:20:40 17° 295° (WNW) 01:23:31 435.000
SPROUT 31 Jul 01:18:39 01:22:55 73° 258° (WSW) 01:27:14 437.525
UNISAT 6 31 Jul 01:37:27 01:38:13 10° 299° (WNW) 01:38:59 437.425
CUBEBUG 1 31 Jul 01:46:05 01:48:32 15° 268° (W) 01:51:00 437.445
BUGSAT 1 31 Jul 01:49:50 01:54:08 82° 104° (ESE) 01:58:23 437.445
NANOSAT C BR1 31 Jul 01:50:49 01:54:48 38° 288° (WNW) 01:58:45 145.865
DUCHIFAT 1 31 Jul 01:53:01 01:57:00 39° 288° (WNW) 02:00:56 145.980
VELOX 1 31 Jul 01:56:12 01:58:26 14° 268° (W) 02:00:40 145.980
TISAT 1 31 Jul 01:58:45 02:02:56 72° 75° (ENE) 02:07:10 437.305
ISS 31 Jul 02:02:16 02:04:38 18° 23° (NNE) 02:07:00 145.825
Cosmos 2499 31 Jul 02:08:39 02:14:02 20° 65° (ENE) 02:19:09 435.465 / 435.565
QB50P1 31 Jul 02:16:26 02:19:35 20° 293° (WNW) 02:22:43 145.935-145.965
GONETS M04 31 Jul 02:22:50 02:31:02 40° 74° (ENE) 02:39:11
SWISSCUBE 31 Jul 02:23:00 02:27:05 29° 68° (ENE) 02:31:11 437.505
POPSAT HIP 1 31 Jul 02:23:33 02:26:24 18° 294° (WNW) 02:29:15 437.405
JAS-2 31 Jul 02:23:49 02:29:13 75° 285° (WNW) 02:35:12 435.910
BEESAT 3 31 Jul 02:24:31 02:27:23 19° 47° (NE) 02:30:15 437.485
BEESAT 2 31 Jul 02:39:27 02:41:53 15° 45° (NE) 02:44:20 435.950
BEESAT 31 Jul 02:43:24 02:47:53 41° 71° (ENE) 02:52:22 436.000
Oscar 19 31 Jul 03:02:04 03:07:16 71° 102° (ESE) 03:12:26 437.125/150
ITUPSAT 1 31 Jul 03:09:01 03:13:49 75° 74° (ENE) 03:18:37 437.325
JUGNU 31 Jul 03:15:45 03:17:14 11° 183° (S) 03:18:43 437.505
Gurwin Techsat 1B 31 Jul 03:16:59 03:22:03 43° 99° (E) 03:27:04 435.225
KKS-1 31 Jul 03:21:35 03:22:53 11° 62° (ENE) 03:24:10 437.445
ISS 31 Jul 03:38:07 03:41:22 72° 221° (SW) 03:44:36 145.825
STARS 31 Jul 03:48:54 03:49:50 11° 62° (ENE) 03:50:46 437.465
DANDE 31 Jul 03:59:34 04:03:21 21° 95° (E) 04:06:28 436.750
Cosmos 2499 31 Jul 04:00:21 04:08:00 71° 267° (W) 04:15:07 435.465 / 435.565
SWISSCUBE 31 Jul 04:00:41 04:04:47 28° 264° (W) 04:08:55 437.505
BEESAT 3 31 Jul 04:01:30 04:05:13 39° 244° (WSW) 04:08:53 437.485
PCSat 31 Jul 04:09:37 04:14:46 42° 55° (NE) 04:19:53 145.827
BEESAT 2 31 Jul 04:16:07 04:20:02 53° 242° (WSW) 04:23:55 435.950
GONETS M04 31 Jul 04:19:41 04:27:48 43° 273° (W) 04:35:56
BEESAT 31 Jul 04:22:22 04:25:48 19° 266° (W) 04:29:15 436.000
MOZHAYETS 4 31 Jul 04:23:26 04:27:57 55° 73° (ENE) 04:32:29
CUSAT 1 31 Jul 04:38:49 04:42:23 39° 280° (W) 04:45:17 437.405
AO-7 31 Jul 04:41:15 04:48:55 39° 99° (E) 04:56:30 29.400- 29.500
Oscar 19 31 Jul 04:43:14 04:45:58 14° 299° (WNW) 04:48:41 437.125/150
ITAMSAT 1 31 Jul 04:45:51 04:51:03 86° 284° (WNW) 04:56:14 435.822/435.867
ITUPSAT 1 31 Jul 04:51:20 04:52:08 10° 270° (W) 04:52:57 437.325
KKS-1 31 Jul 04:54:24 04:58:49 71° 258° (WSW) 05:03:17 437.445
Gurwin Techsat 1B 31 Jul 04:57:33 05:01:42 24° 295° (WNW) 05:05:50 435.225
RS-15 31 Jul 05:12:17 05:19:15 19° 97° (E) 05:26:24 29.354- 29.394
AIST 2 31 Jul 05:15:27 05:19:08 30° 51° (NE) 05:22:49 435.215
STARS 31 Jul 05:21:10 05:25:33 73° 259° (W) 05:29:58 437.465
SRMSAT 31 Jul 05:40:59 05:42:11 11° 184° (S) 05:43:24 437.500
DANDE 31 Jul 05:41:35 05:46:01 29° 281° (W) 05:49:30 436.750
PCSat 31 Jul 05:53:30 05:57:54 26° 253° (WSW) 06:02:18 145.827
CUBESAT XI-V 31 Jul 05:54:34 05:59:07 61° 74° (ENE) 06:03:40 437.345
MOZHAYETS 4 31 Jul 06:03:08 06:05:25 14° 269° (W) 06:07:43
O/OREOS (USA 219) 31 Jul 06:09:21 06:13:33 36° 63° (ENE) 06:17:45 437.305
HORYU 2 31 Jul 06:10:34 06:14:43 37° 98° (E) 06:18:50 437.375
ITAMSAT 1 31 Jul 06:28:34 06:29:41 11° 302° (WNW) 06:30:49 435.822/435.867
NOAA 18 31 Jul 06:33:27 06:33:55 10° 89° (E) 06:34:23 137.9125
SO-50 31 Jul 06:33:33 06:34:12 10° 106° (ESE) 06:34:51 436.795
AO-7 31 Jul 06:33:54 06:41:43 46° 297° (WNW) 06:49:30 29.400- 29.500
Cubesat XI-IV 31 Jul 06:36:42 06:38:24 11° 89° (E) 06:40:07 437.490
BRITE-PL 31 Jul 06:47:39 06:52:05 30° 96° (E) 06:56:46 437.365/2234.400
AIST 2 31 Jul 06:54:04 06:57:30 25° 248° (WSW) 07:00:55 435.215
CUTE-I 31 Jul 06:57:08 07:00:56 20° 93° (E) 07:04:42 437.470
NOAA 15 31 Jul 07:02:08 07:06:42 29° 96° (E) 07:11:14 137.62
LilacSat-2 31 Jul 07:06:57 07:09:48 20° 94° (E) 07:12:37 437.200
RS-15 31 Jul 07:18:14 07:29:38 83° 118° (ESE) 07:41:44 29.354- 29.394
GOMX 1 31 Jul 07:27:09 07:31:56 35° 97° (E) 07:36:51 467.674
STRAND 1 31 Jul 07:32:54 07:37:42 41° 70° (ENE) 07:42:31 437.568
CUBESAT XI-V 31 Jul 07:35:07 07:36:52 12° 270° (W) 07:38:38 437.345
HORYU 2 31 Jul 07:47:47 07:51:00 20° 294° (WNW) 07:54:12 437.375
O/OREOS (USA 219) 31 Jul 07:49:20 07:52:41 20° 259° (W) 07:56:02 437.305
Cosmos 2491 31 Jul 07:53:00 07:59:28 22° 66° (ENE) 08:05:54 435.465 / 435.565
SO-50 31 Jul 08:09:04 08:13:58 86° 303° (WNW) 08:18:51 436.795
NOAA 18 31 Jul 08:09:42 08:15:16 89° 104° (ESE) 08:20:46 137.9125
Cubesat XI-IV 31 Jul 08:13:42 08:19:04 80° 285° (WNW) 08:24:23 437.490
CINEMA 3 31 Jul 08:16:12 08:18:45 14° 90° (E) 08:21:15 145.822/145.860
BRITE-PL 31 Jul 08:26:06 08:30:29 31° 289° (WNW) 08:35:08 437.365/2234.400
PRISM 31 Jul 08:27:56 08:30:27 16° 66° (ENE) 08:32:58 437.425
CUTE 1.7 + AOD 2 31 Jul 08:30:47 08:32:28 12° 91° (E) 08:34:09 437.475
DOVE 4 31 Jul 08:35:08 08:40:24 76° 102° (ESE) 08:45:42 437.250
CUTE-I 31 Jul 08:36:05 08:41:14 49° 289° (WNW) 08:46:19 437.470
LilacSat-2 31 Jul 08:40:50 08:44:05 26° 289° (WNW) 08:47:17 437.200
NOAA 15 31 Jul 08:41:45 08:46:26 33° 292° (WNW) 08:51:06 137.62
SEEDS 31 Jul 09:00:28 09:03:28 19° 94° (E) 09:06:26 437.485
COMPASS 1 31 Jul 09:04:21 09:06:36 14° 92° (E) 09:08:51 437.405
GOMX 1 31 Jul 09:05:25 09:09:50 29° 291° (WNW) 09:14:25 467.674
HO-68 31 Jul 09:07:33 09:14:19 42° 99° (E) 09:21:00 435.675
STRAND 1 31 Jul 09:13:03 09:17:00 22° 266° (W) 09:20:58 437.568
YUBILEINY 31 Jul 09:18:07 09:25:35 33° 84° (E) 09:33:07 435.215
AAUSAT CUBESAT 2 31 Jul 09:27:21 09:30:29 21° 94° (E) 09:33:36 437.432
RS-15 31 Jul 09:33:17 09:43:35 34° 324° (NW) 09:54:24 29.354- 29.394
FUNcube-1 31 Jul 09:44:52 09:46:32 12° 90° (E) 09:48:12 145.935
ZACube-1 31 Jul 09:47:47 09:50:09 14° 91° (E) 09:52:30 437.345
Cosmos 2491 31 Jul 09:48:28 09:57:13 77° 266° (W) 10:05:59 435.465 / 435.565
CINEMA 3 31 Jul 09:51:18 09:56:17 63° 286° (WNW) 10:01:08 145.822/145.860
CANX-2 31 Jul 09:51:56 09:56:06 62° 285° (WNW) 10:00:14 2200.000
SO-50 31 Jul 09:52:37 09:55:09 14° 320° (NW) 09:57:41 436.795
NOAA 18 31 Jul 09:52:47 09:55:06 13° 302° (WNW) 09:57:25 137.9125
UWE-3 31 Jul 09:56:24 10:00:21 28° 95° (E) 10:04:10 435.000/436.395/437.385
Cubesat XI-IV 31 Jul 09:57:32 09:58:13 10° 302° (WNW) 09:58:55 437.490
ANTELSAT 31 Jul 09:58:35 10:01:22 16° 64° (ENE) 10:04:12 437.575/2403.000
PRISM 31 Jul 10:01:39 10:05:26 38° 261° (W) 10:09:15 437.425
CUTE 1.7 + AOD 2 31 Jul 10:04:31 10:08:36 50° 286° (WNW) 10:12:39 437.475
Cosmos 2504 31 Jul 10:05:26 10:11:45 22° 80° (E) 10:18:00 435.465 / 435.565
DOVE 4 31 Jul 10:14:46 10:17:25 14° 297° (WNW) 10:20:07 437.250
Oscar 11 31 Jul 10:19:05 10:22:58 32° 97° (E) 10:26:48 145.826/435.025
